DW3349 Weather Reports


Display with metric or nautical units.
time (UTC)temp
F
wind
direction
speed
MPH
gust
MPH
rain 1hr
in
rain 24hr
in
rain mn
in
humidity
%
barometer
mb
20260506033200 49 52 2.0 14.0 0.00 0.00 0.00 87 1008.7
20260506032700 49 68 4.0 14.0 0.00 0.00 0.00 87 1008.7
20260506032157 49 51 7.0 13.0 0.00 0.00 0.00 87 1008.7
20260506031657 49 65 4.0 13.0 0.00 0.00 0.00 87 1008.6
20260506031200 49 48 6.0 13.0 0.00 0.00 0.00 87 1008.7
20260506030655 49 52 3.0 14.0 0.00 0.00 0.00 87 1008.7
20260506030155 49 48 5.0 14.0 0.00 0.00 0.00 87 1008.8
20260506025919 49 61 6.0 14.0 0.00 0.00 0.00 87 1008.9
20260506025153 48 30 5.0 14.0 0.00 0.00 0.00 87 1008.9
20260506024654 48 345 4.0 11.0 0.00 0.00 0.00 87 1009.0
20260506024150 48 51 3.0 13.0 0.00 0.00 0.00 87 1008.9
20260506023651 48 326 3.0 13.0 0.00 0.00 0.00 86 1008.9
20260506023151 48 38 2.0 12.0 0.00 0.00 0.00 87 1009.0
20260506022900 48 38 8.0 12.0 0.00 0.00 0.00 87 1009.0
20260506021650 48 65 6.0 13.0 0.00 0.00 0.00 87 1009.0
20260506021150 48 80 3.0 13.0 0.00 0.00 0.00 87 1009.0
20260506020647 48 6 3.0 9.0 0.00 0.00 0.00 86 1009.1
20260506020148 48 34 4.0 9.0 0.00 0.00 0.00 86 1009.2
20260506015648 48 73 4.0 9.0 0.00 0.00 0.00 86 1009.1
20260506015147 48 14 3.0 9.0 0.00 0.00 0.00 86 1009.1
20260506014644 48 14 4.0 7.0 0.00 0.00 0.00 86 1009.1
20260506014144 48 21 3.0 7.0 0.00 0.00 0.00 86 1009.1
20260506013653 48 83 3.0 11.0 0.00 0.00 0.00 86 1009.2
20260506013644 48 17 3.0 11.0 0.00 0.00 0.00 86 1009.2
20260506012643 48 38 5.0 12.0 0.00 0.00 0.00 86 1009.1
20260506012143 48 55 4.0 12.0 0.00 0.00 0.00 86 1009.2
20260506011642 48 65 4.0 13.0 0.00 0.00 0.00 85 1009.2
20260506011143 48 4 7.0 13.0 0.00 0.00 0.00 85 1009.2
20260506010645 48 61 6.0 11.0 0.00 0.00 0.00 85 1009.2
20260506010141 48 54 4.0 13.0 0.00 0.00 0.00 85 1009.2
20260506005913 48 51 4.0 13.0 0.00 0.00 0.00 84 1009.3
20260506005414 48 68 6.0 12.0 0.00 0.00 0.00 84 1009.3
20260506004639 48 63 5.0 13.0 0.00 0.00 0.00 84 1009.4
20260506004139 48 27 6.0 13.0 0.00 0.00 0.00 84 1009.4
20260506003637 48 25 5.0 12.0 0.00 0.00 0.00 84 1009.4
20260506003135 48 68 4.0 11.0 0.00 0.00 0.00 84 1009.5
20260506002904 48 47 6.0 12.0 0.00 0.00 0.00 83 1009.6
20260506002133 48 34 5.0 12.0 0.00 0.00 0.00 83 1009.7
20260506001635 48 71 3.0 12.0 0.00 0.00 0.00 83 1009.6
20260506001134 48 8 4.0 12.0 0.00 0.00 0.00 82 1009.7
20260506000904 48 41 7.0 12.0 0.00 0.00 0.00 81 1009.7
20260506000135 48 0 4.0 11.0 0.00 0.00 0.00 81 1009.8
20260505235632 48 56 2.0 10.0 0.00 0.00 0.00 81 1009.8
20260505235133 48 56 4.0 10.0 0.00 0.00 0.00 81 1009.9
20260505234632 48 38 3.0 10.0 0.00 0.00 0.00 80 1009.8
20260505234132 48 11 4.0 11.0 0.00 0.00 0.00 80 1009.9
20260505233634 48 65 4.0 13.0 0.00 0.00 0.00 80 1009.9
20260505233131 48 23 6.0 13.0 0.00 0.00 0.00 80 1010.0
20260505232630 48 39 5.0 12.0 0.00 0.00 0.00 79 1010.0
20260505232129 48 18 5.0 12.0 0.00 0.00 0.00 79 1010.0
20260505231630 48 10 5.0 12.0 0.00 0.00 0.00 79 1010.1
20260505231409 48 32 4.0 14.0 0.00 0.00 0.00 79 1010.1
20260505230907 48 45 5.0 14.0 0.00 0.00 0.00 79 1010.2
20260505230403 48 25 4.0 9.0 0.00 0.00 0.00 79 1010.1
20260505225631 48 51 3.0 9.0 0.00 0.00 0.00 78 1010.1
20260505225130 48 86 3.0 7.0 0.00 0.00 0.00 78 1010.2
20260505224631 48 48 4.0 9.0 0.00 0.00 0.00 78 1010.1
20260505224130 49 51 3.0 12.0 0.00 0.00 0.00 78 1010.1
20260505223902 49 61 3.0 12.0 0.00 0.00 0.00 77 1010.1
20260505223129 49 21 4.0 11.0 0.00 0.00 0.00 77 1010.2
20260505222631 49 20 3.0 9.0 0.00 0.00 0.00 77 1010.2
20260505222128 49 31 3.0 10.0 0.00 0.00 0.00 77 1010.2
20260505221627 49 35 5.0 10.0 0.00 0.00 0.00 77 1010.3
20260505221126 49 8 3.0 7.0 0.00 0.00 0.00 77 1010.4
20260505220625 49 41 5.0 10.0 0.00 0.00 0.00 77 1010.4
20260505220125 49 58 3.0 10.0 0.00 0.00 0.00 77 1010.4
20260505215626 49 63 4.0 12.0 0.00 0.00 0.00 77 1010.5
20260505215123 49 24 4.0 12.0 0.00 0.00 0.00 76 1010.5
20260505214620 49 69 2.0 10.0 0.00 0.00 0.00 76 1010.5
20260505214137 49 27 5.0 11.0 0.00 0.00 0.00 76 1010.4
20260505214130 49 45 3.0 11.0 0.00 0.00 0.00 76 1010.5
20260505213121 50 34 2.0 9.0 0.00 0.00 0.00 76 1010.5
20260505212621 50 21 4.0 9.0 0.00 0.00 0.00 76 1010.6
20260505212123 50 48 4.0 9.0 0.00 0.00 0.00 76 1010.6
20260505211850 50 39 2.0 10.0 0.00 0.00 0.00 76 1010.6
20260505211123 50 63 4.0 10.0 0.00 0.00 0.00 76 1010.6
20260505210620 50 27 3.0 6.0 0.00 0.00 0.00 76 1010.6
20260505210120 50 49 3.0 6.0 0.00 0.00 0.00 76 1010.7
20260505205620 50 55 2.0 6.0 0.00 0.00 0.00 76 1010.7
20260505205350 50 61 2.0 7.0 0.00 0.00 0.00 76 1010.7
20260505204619 51 38 4.0 7.0 0.00 0.00 0.00 76 1010.7
20260505204120 51 8 4.0 7.0 0.00 0.00 0.00 76 1010.7
20260505203619 51 45 3.0 11.0 0.00 0.00 0.00 76 1010.7
20260505203119 51 41 3.0 11.0 0.00 0.00 0.00 76 1010.6
20260505202620 51 27 6.0 11.0 0.00 0.00 0.00 75 1010.7
20260505202118 51 68 3.0 13.0 0.00 0.00 0.00 76 1010.6
20260505201618 51 59 6.0 13.0 0.00 0.00 0.00 76 1010.6
20260505201117 51 72 5.0 12.0 0.00 0.00 0.00 76 1010.5
20260505200619 51 58 5.0 15.0 0.00 0.00 0.00 75 1010.5
20260505200119 51 27 5.0 15.0 0.00 0.00 0.00 75 1010.5
20260505195616 51 71 5.0 11.0 0.00 0.00 0.00 75 1010.5
20260505195117 52 44 4.0 13.0 0.00 0.00 0.00 75 1010.4
20260505194617 52 31 7.0 15.0 0.00 0.00 0.00 75 1010.4
20260505194117 52 65 7.0 15.0 0.00 0.00 0.00 75 1010.3
20260505193618 52 6 6.0 14.0 0.00 0.00 0.00 76 1010.3
20260505193351 52 42 3.0 13.0 0.00 0.00 0.00 76 1010.2
20260505192617 52 6 6.0 12.0 0.00 0.00 0.00 76 1010.1
20260505192117 53 0 2.0 12.0 0.00 0.00 0.00 76 1010.1
20260505191616 53 42 5.0 15.0 0.00 0.00 0.00 76 1010.1
20260505191116 53 11 4.0 15.0 0.00 0.00 0.00 76 1010.0
20260505190614 53 7 6.0 14.0 0.00 0.00 0.00 76 1009.9
20260505190114 53 0 6.0 17.0 0.00 0.00 0.00 76 1009.9
20260505185616 53 68 6.0 17.0 0.00 0.00 0.00 76 1009.9
20260505185115 53 56 7.0 15.0 0.00 0.00 0.00 76 1009.8
20260505184613 53 59 4.0 13.0 0.00 0.00 0.00 76 1009.9
20260505184112 53 23 5.0 15.0 0.00 0.00 0.00 76 1009.8
20260505183615 53 63 6.0 15.0 0.00 0.00 0.00 76 1009.8
20260505183114 53 1 3.0 17.0 0.00 0.00 0.00 76 1009.7
20260505182610 54 120 7.0 18.0 0.00 0.00 0.00 76 1009.7
20260505182110 54 41 9.0 18.0 0.00 0.00 0.00 76 1009.7
20260505181610 54 61 9.0 15.0 0.00 0.00 0.00 76 1009.7
20260505181109 54 314 5.0 15.0 0.00 0.00 0.00 76 1009.6
20260505180840 54 3 5.0 16.0 0.00 0.00 0.00 76 1009.7
20260505180109 54 25 9.0 16.0 0.00 0.00 0.00 76 1009.8
20260505175608 54 54 7.0 17.0 0.00 0.00 0.00 75 1009.8
20260505175107 54 39 6.0 19.0 0.00 0.00 0.00 76 1009.8
20260505174606 54 0 5.0 19.0 0.00 0.00 0.00 76 1009.9
20260505174104 54 6 4.0 18.0 0.00 0.00 0.00 75 1009.8
20260505173613 54 0 9.0 19.0 0.00 0.00 0.00 75 1009.8
20260505173607 54 20 9.0 19.0 0.00 0.00 0.00 75 1009.8
20260505172834 55 16 7.0 17.0 0.00 0.00 0.00 75 1009.8
20260505172105 55 358 8.0 18.0 0.00 0.00 0.00 75 1009.9
20260505171606 55 23 11.0 22.0 0.00 0.00 0.00 75 1009.8
20260505171334 55 68 9.0 22.0 0.00 0.00 0.00 75 1009.8
20260505170604 55 14 6.0 16.0 0.00 0.00 0.00 75 1009.9
20260505170105 55 0 9.0 20.0 0.00 0.00 0.00 75 1009.9
20260505165835 55 63 7.0 20.0 0.00 0.00 0.00 75 1010.0
20260505165333 55 35 8.0 19.0 0.00 0.00 0.00 75 1010.0
20260505164604 55 348 6.0 19.0 0.00 0.00 0.00 75 1010.0
20260505164101 55 334 7.0 18.0 0.00 0.00 0.00 74 1010.0
20260505163602 55 51 9.0 17.0 0.00 0.00 0.00 74 1010.0
20260505163102 55 333 4.0 15.0 0.00 0.00 0.00 74 1009.9
20260505162604 55 31 6.0 18.0 0.00 0.00 0.00 74 1009.9
20260505162107 56 38 7.0 17.0 0.00 0.00 0.00 74 1009.9
20260505162103 55 58 8.0 18.0 0.00 0.00 0.00 74 1009.9
20260505161102 56 333 9.0 17.0 0.00 0.00 0.00 74 1010.0
20260505160603 56 65 4.0 18.0 0.00 0.00 0.00 73 1009.9
20260505160104 56 0 10.0 18.0 0.00 0.00 0.00 73 1010.0
20260505153101 56 348 8.0 16.0 0.00 0.00 0.00 72 1010.0
20260505152602 56 35 10.0 20.0 0.00 0.00 0.00 72 1010.0
20260505152102 56 23 6.0 20.0 0.00 0.00 0.00 72 1010.1
20260505151601 56 49 5.0 21.0 0.00 0.00 0.00 72 1010.1
20260505151058 57 8 9.0 21.0 0.00 0.00 0.00 72 1010.0
20260505150559 57 10 4.0 16.0 0.00 0.00 0.00 72 1010.1
20260505140555 58 39 7.0 19.0 0.00 0.00 0.00 70 1010.2
20260505124823 58 11 11.0 20.0 0.00 0.00 0.00 71 1010.5
20260505124050 58 0 6.0 18.0 0.00 0.00 0.00 72 1010.6
20260505123550 58 0 9.0 20.0 0.00 0.00 0.00 71 1010.6
20260505123049 58 25 9.0 20.0 0.00 0.00 0.00 71 1010.6
20260505122545 57 20 10.0 18.0 0.00 0.00 0.00 70 1010.6
20260505122046 58 4 8.0 18.0 0.00 0.00 0.00 70 1010.5
20260505121546 58 62 8.0 24.0 0.00 0.00 0.00 70 1010.5
20260505121047 58 8 9.0 24.0 0.00 0.00 0.00 69 1010.4
20260505120546 58 355 8.0 18.0 0.00 0.00 0.00 70 1010.4
20260505120045 58 16 9.0 18.0 0.00 0.00 0.00 69 1010.5
20260505115546 58 28 4.0 20.0 0.00 0.00 0.00 69 1010.4
20260505115045 58 41 4.0 20.0 0.00 0.00 0.00 69 1010.5
20260505114545 58 358 7.0 16.0 0.00 0.00 0.00 69 1010.6
20260505114044 58 45 5.0 15.0 0.00 0.00 0.00 70 1010.7
20260505113549 58 357 8.0 20.0 0.00 0.00 0.00 71 1010.7
20260505113545 58 62 7.0 18.0 0.00 0.00 0.00 69 1010.6
20260505112544 58 8 8.0 20.0 0.00 0.00 0.00 71 1010.7
20260505112045 58 28 9.0 19.0 0.00 0.00 0.00 70 1010.7
20260505111544 58 37 6.0 19.0 0.00 0.00 0.00 71 1010.8
20260505111044 58 343 9.0 19.0 0.00 0.00 0.00 72 1010.8
20260505110545 57 0 7.0 18.0 0.00 0.00 0.00 71 1010.9
20260505110310 57 41 8.0 20.0 0.00 0.00 0.00 71 1010.8
20260505102041 59 94 3.0 14.0 0.00 0.00 0.00 65 1011.1
20260505101541 58 86 4.0 16.0 0.00 0.00 0.00 63 1011.2
20260505101041 59 44 6.0 16.0 0.00 0.00 0.00 63 1011.3
20260505100541 59 92 6.0 12.0 0.00 0.00 0.00 63 1011.4
20260505100041 59 80 6.0 14.0 0.00 0.00 0.00 64 1011.2
20260505095541 59 87 7.0 14.0 0.00 0.00 0.00 63 1011.2
20260505095042 58 85 8.0 13.0 0.00 0.00 0.00 65 1011.2
20260505094541 58 130 5.0 13.0 0.00 0.00 0.00 65 1011.2
20260505094041 58 120 4.0 15.0 0.00 0.00 0.00 66 1011.2
20260505093541 57 62 4.0 15.0 0.00 0.00 0.00 66 1011.2
20260505093310 57 0 6.0 18.0 0.00 0.00 0.00 66 1011.4
20260505092541 57 343 9.0 18.0 0.00 0.00 0.00 68 1011.3
20260505092041 56 25 9.0 15.0 0.00 0.00 0.00 68 1011.4
20260505091540 56 55 7.0 15.0 0.00 0.00 0.00 70 1011.3
20260505091039 55 45 5.0 15.0 0.00 0.00 0.00 72 1011.4
20260505090539 55 58 8.0 16.0 0.00 0.00 0.00 73 1011.4
20260505090311 54 96 9.0 16.0 0.00 0.00 0.00 74 1011.3
20260505085817 54 10 6.0 15.0 0.00 0.00 0.00 74 1011.3
20260505085036 54 27 8.0 15.0 0.00 0.00 0.00 75 1011.4
20260505084537 53 45 7.0 14.0 0.00 0.00 0.00 76 1011.5
20260505084301 53 65 4.0 12.0 0.00 0.00 0.00 77 1011.3
20260505083534 53 0 7.0 17.0 0.00 0.00 0.00 77 1011.3
20260505083033 53 83 7.0 17.0 0.00 0.00 0.00 79 1011.4
20260505082533 52 14 7.0 15.0 0.00 0.00 0.00 80 1011.3
20260505082034 52 48 4.0 14.0 0.00 0.00 0.00 81 1011.3
20260505081535 52 34 5.0 14.0 0.00 0.00 0.00 82 1011.2
20260505081035 52 97 8.0 14.0 0.00 0.00 0.00 83 1011.2
20260505080533 52 89 5.0 15.0 0.00 0.00 0.00 84 1011.1
20260505080033 51 72 7.0 15.0 0.00 0.00 0.00 84 1011.2
20260505075531 51 56 5.0 16.0 0.00 0.00 0.00 85 1011.2
20260505075032 51 47 7.0 16.0 0.00 0.00 0.00 86 1011.3
20260505074532 51 104 10.0 15.0 0.00 0.00 0.00 87 1011.3
20260505074032 51 39 7.0 15.0 0.00 0.00 0.00 88 1011.5
20260505073531 51 39 4.0 15.0 0.00 0.00 0.00 88 1011.4
20260505073031 51 80 5.0 14.0 0.00 0.00 0.00 88 1011.5
20260505072532 50 75 3.0 14.0 0.00 0.00 0.00 89 1011.5
20260505072030 50 42 2.0 12.0 0.00 0.00 0.00 88 1011.6
20260505071528 50 140 6.0 12.0 0.00 0.00 0.00 88 1011.6
20260505071256 50 96 6.0 12.0 0.00 0.00 0.00 88 1011.6
20260505070527 50 65 6.0 12.0 0.00 0.00 0.00 88 1011.6
20260505070028 50 71 4.0 12.0 0.00 0.00 0.00 89 1011.7
20260505065525 50 86 4.0 14.0 0.00 0.00 0.00 89 1011.8
20260505065253 50 47 6.0 14.0 0.00 0.00 0.00 89 1011.7
20260505064535 50 56 4.0 11.0 0.00 0.00 0.00 90 1011.8
20260505064531 50 73 1.0 11.0 0.00 0.00 0.00 89 1011.9
20260505064525 50 7 5.0 9.0 0.00 0.00 0.00 89 1011.8
20260505063022 50 71 5.0 11.0 0.00 0.00 0.00 89 1011.8
20260505062522 50 51 5.0 12.0 0.00 0.00 0.00 90 1011.9
20260505062020 50 45 7.0 12.0 0.00 0.00 0.00 90 1011.9
20260505061521 50 65 4.0 11.0 0.00 0.00 0.00 90 1011.9
20260505061021 50 32 5.0 12.0 0.00 0.00 0.00 90 1012.0
20260505060518 50 44 4.0 12.0 0.00 0.00 0.00 90 1012.0
20260505060020 50 58 5.0 10.0 0.00 0.00 0.00 90 1011.9
20260505055518 50 34 4.0 10.0 0.00 0.00 0.00 90 1011.9
20260505055016 50 75 3.0 10.0 0.00 0.00 0.00 90 1011.9
20260505054516 50 76 3.0 9.0 0.00 0.00 0.00 90 1012.0
20260505054017 50 39 3.0 10.0 0.00 0.00 0.00 90 1011.9
20260505053516 50 47 6.0 10.0 0.00 0.00 0.00 90 1011.9
20260505053014 50 79 3.0 7.0 0.00 0.00 0.00 90 1011.9
20260505052514 50 65 4.0 7.0 0.00 0.00 0.00 90 1011.8
20260505052013 50 83 3.0 6.0 0.00 0.00 0.00 90 1011.9
20260505051742 49 56 2.0 11.0 0.00 0.00 0.00 90 1011.7
20260505051013 50 89 4.0 11.0 0.00 0.00 0.00 90 1011.8
20260505050511 50 58 3.0 10.0 0.00 0.00 0.00 90 1011.9
20260505041733 50 89 5.0 11.0 0.00 0.00 0.00 90 1011.6
20260505041008 50 42 3.0 11.0 0.00 0.00 0.00 90 1011.6
20260505040506 50 34 4.0 9.0 0.00 0.00 0.00 89 1011.6
20260505040008 50 72 3.0 10.0 0.00 0.00 0.00 89 1011.6
20260505035733 50 59 3.0 10.0 0.00 0.00 0.00 89 1011.7
20260505035233 50 66 4.0 9.0 0.00 0.00 0.00 89 1011.7
20260505034733 50 42 2.0 6.0 0.00 0.00 0.00 89 1011.6
20260505034016 50 79 3.0 9.0 0.00 0.00 0.00 89 1011.6
20260505034011 50 32 4.0 9.0 0.00 0.00 0.00 89 1011.6
20260505034007 50 38 3.0 7.0 0.00 0.00 0.00 89 1011.6